{"data":{"norad_id":67907,"intl_designator":"2026-036D","name":"STARLINK-36742","alt_names":[],"object_type":"PAYLOAD","status":"ACTIVE","operator":null,"country":"US","launch_date":"2026-02-22","launch_site_code":"AFETR","launch_vehicle":null,"mission":null,"orbit_class":"UNKNOWN","rcs_meters":null,"size_class":null,"mass_kg":null,"dimensions":null,"purposes":["comms"],"wikipedia_slug":null,"has_3d_model":false,"image_url":null,"decayed_at":null,"tle_current":{"epoch":"2026-09-19T04:45:57.134880Z","epoch_age_seconds":175646,"freshness":"STALE","line1":"1 67907U 26036D   26262.19857795  .00009715  00000+0  36197-3 0  9995","line2":"2 67907  42.9989 232.7078 0001289 273.7516  86.3188 15.27592294 33312","mean_motion":15.27592294,"eccentricity":0.0001289,"inclination_deg":42.9989,"raan_deg":232.7078,"arg_perigee_deg":273.7516,"mean_anomaly_deg":86.3188,"bstar":0.00036197,"rev_number":3331,"period_min":94.265990058732,"perigee_km":482.12788148514,"apogee_km":483.89668577046,"semimajor_km":6861.1492836278,"source":"CELESTRAK","updated_at":"2026-09-20T09:00:43.701407Z"}}}